Theta_e
301 301 302 302 304 307 308 310 311 312 312 314 314 314 315 314 310 305 305 304 304 299 300 300 301 300 300 301 300 301 300 301 300 297 295 295 294 295 293 294 293 293 290 290 289 286 284 299 299 291 300 302 302 302
300 300 301 302 302 304 307 308 310 311 311 312 314 314 315 315 310 303 304 305 305 303 303 301 303 305 304 304 303 299 300 300 303 298 297 296 294 293 292 290 294 291 295 294 294 293 299 303 303 306 303 303 303 303
300 300 300 302 302 302 306 307 308 310 311 312 313 314 315 315 312 306 304 302 303 301 302 300 302 304 305 305 308 301 300 302 301 301 299 297 293 295 291 291 293 296 296 295 295 298 299 301 303 304 305 304 305 304
301 300 300 300 301 302 303 306 307 308 310 311 312 313 314 314 312 305 306 304 303 300 297 300 305 303 305 305 304 305 305 304 303 300 298 297 294 295 293 293 294 297 297 296 296 299 301 302 303 304 304 305 304 305
301 300 300 300 300 301 302 304 306 307 308 310 312 313 313 314 312 306 302 304 304 302 297 298 302 302 304 305 306 307 307 304 302 299 298 296 296 296 296 295 294 297 298 296 296 302 301 302 304 304 303 304 304 304
300 301 301 300 300 300 301 302 305 306 307 309 311 312 313 313 308 304 301 304 304 304 299 293 299 301 302 306 305 304 304 302 301 300 298 298 298 298 294 293 299 300 302 305 301 303 303 305 305 305 303 304 305 304
300 301 301 301 300 300 300 302 303 305 307 308 310 311 311 311 307 302 301 303 304 304 297 293 295 300 303 304 303 303 303 302 302 299 297 299 298 298 297 293 300 301 302 304 304 302 302 303 303 304 303 304 304 304
300 301 301 301 301 299 299 301 302 304 306 307 308 309 310 309 306 304 303 303 302 299 297 292 294 297 303 299 299 302 300 302 301 300 298 298 297 298 294 300 301 300 301 302 303 304 305 304 304 303 303 303 302 302
300 301 301 301 301 299 299 300 301 303 305 306 307 309 305 303 301 304 306 303 302 299 294 292 292 292 301 298 299 298 301 296 299 298 298 298 295 294 299 301 301 302 302 303 304 304 303 301 300 301 301 302 300 301
300 301 301 301 301 300 298 299 301 303 304 306 305 302 297 301 309 308 301 296 295 297 297 294 297 295 299 297 295 296 297 296 293 297 298 295 295 302 303 303 304 303 304 305 302 301 299 298 299 300 301 301 300 300
300 301 301 301 301 299 299 301 302 303 305 303 299 298 301 309 302 299 293 291 293 290 294 296 297 296 300 296 295 297 294 294 291 294 295 294 294 300 303 303 304 305 304 305 305 302 301 300 300 300 301 301 300 300
300 300 301 300 300 299 300 300 301 302 302 302 301 302 302 298 296 288 287 292 291 290 294 293 295 299 298 300 297 294 293 293 290 296 294 291 298 302 303 304 303 305 306 305 302 301 301 301 302 302 301 301 301 300
299 300 300 300 299 300 300 299 300 302 304 303 298 294 291 289 283 285 284 289 290 294 294 294 293 296 296 297 295 293 290 290 295 292 291 295 299 301 304 304 303 304 302 301 301 301 300 300 301 300 301 301 300 299
300 300 300 300 300 300 299 299 300 302 300 291 287 283 284 284 286 290 293 294 298 298 295 296 295 297 297 294 293 291 293 294 289 286 290 297 300 303 304 304 301 299 301 301 301 300 299 300 301 301 301 301 300 299
299 300 299 299 299 299 299 299 300 303 296 288 286 283 285 291 293 295 297 297 299 299 297 296 295 296 293 293 294 292 289 288 291 292 296 300 302 303 303 302 302 301 302 302 302 301 301 301 301 301 301 301 300 299
299 298 297 299 299 299 299 299 300 298 292 289 286 285 289 288 291 292 294 295 299 298 299 299 294 293 293 294 290 290 289 288 293 296 299 301 303 304 304 303 302 302 303 303 303 303 302 301 300 301 300 300 300 299
298 293 298 299 300 299 300 298 295 290 288 285 286 289 290 288 290 294 295 296 299 297 295 295 291 292 294 291 290 293 291 296 298 297 300 304 304 304 305 304 303 303 303 304 304 304 302 301 301 301 300 300 300 299
293 295 298 299 299 298 297 297 291 287 284 288 288 291 292 292 292 295 297 298 299 298 296 295 296 292 291 289 290 295 297 297 299 302 303 303 305 305 304 305 304 304 304 305 305 304 300 299 300 302 301 300 300 299
294 296 298 298 298 295 291 292 289 285 288 290 291 293 296 295 297 299 300 301 301 301 299 296 293 292 293 295 296 297 297 299 300 302 303 304 305 304 304 305 305 305 305 305 304 300 300 301 303 302 302 301 299 298
297 298 297 299 299 289 288 289 293 287 287 290 293 292 295 295 297 298 298 299 298 298 296 295 296 297 297 298 299 299 299 300 301 300 301 303 304 304 304 305 305 304 301 300 300 295 302 301 302 301 302 300 299 297
295 296 297 299 295 293 290 290 289 291 290 290 293 294 294 296 295 295 295 298 295 294 293 297 299 300 298 298 299 299 299 301 302 302 302 303 300 301 300 300 300 300 299 299 299 300 297 303 301 301 301 301 299 299
294 297 296 296 291 292 290 293 291 293 291 291 292 293 290 290 292 293 297 294 293 295 297 298 299 300 299 298 298 301 299 299 299 296 294 296 298 298 299 299 299 299 300 299 301 302 302 302 301 301 301 299 298 299
297 297 293 292 288 287 286 295 289 291 287 289 291 287 287 290 293 297 293 294 295 299 300 301 301 303 303 303 303 301 301 302 300 300 299 299 300 300 299 299 299 299 299 302 305 304 302 296 297 300 299 298 298 297
297 292 287 285 286 283 290 286 290 290 291 288 287 286 288 291 295 292 290 292 295 298 298 300 301 299 301 302 302 302 302 303 301 300 300 299 299 299 299 300 300 300 302 305 305 303 302 301 296 300 300 298 299 298
285 286 286 283 287 285 284 284 285 287 285 287 285 287 289 294 289 288 288 292 293 294 296 299 300 300 300 301 301 302 301 303 301 299 300 299 300 299 300 301 301 304 305 304 302 302 301 301 300 301 298 299 297 296
282 287 285 284 284 285 284 282 283 284 285 286 287 291 293 289 286 286 290 293 295 295 296 298 299 298 299 302 302 300 301 301 300 298 301 300 300 300 301 300 301 304 307 306 304 301 300 298 299 298 298 296 290 296
281 284 288 291 290 289 288 289 290 288 285 286 288 288 288 284 284 290 294 295 295 297 298 298 298 299 301 302 301 300 301 299 299 300 302 303 301 302 304 303 302 306 308 306 304 301 299 299 298 298 299 299 298 298
286 287 285 287 288 290 286 287 286 285 287 291 290 285 285 286 287 293 295 296 297 298 298 298 300 299 299 300 301 302 301 300 302 303 303 304 305 306 307 308 308 293 307 307 305 304 301 300 299 299 299 298 298 300
287 290 289 286 288 288 286 287 288 290 291 291 287 286 288 293 293 295 294 295 296 297 297 298 298 301 301 302 302 303 303 303 301 300 300 301 302 305 309 308 307 308 306 304 289 296 301 300 300 299 299 299 301 302
287 290 288 287 286 285 287 289 289 290 291 291 293 293 293 292 293 295 295 295 295 294 294 295 297 300 300 301 301 301 303 305 304 303 301 302 304 307 309 309 308 308 308 305 302 299 288 296 294 300 299 301 299 298
288 289 287 288 285 288 290 291 290 290 290 289 291 290 288 289 291 295 295 295 295 296 295 295 296 297 299 300 300 300 300 302 304 306 306 308 307 309 310 309 311 310 309 305 302 300 299 299 300 300 300 299 297 296
287 285 286 283 286 290 291 289 288 287 288 288 287 290 290 289 288 292 296 296 296 295 292 294 296 295 297 298 299 300 290 302 304 306 306 307 307 309 310 310 310 309 305 304 303 301 301 301 300 300 301 298 298 297
286 287 287 286 286 285 289 288 285 286 286 286 286 288 289 286 285 292 297 297 297 297 297 298 298 299 298 297 299 300 294 304 299 288 287 289 293 299 308 309 308 308 305 304 304 303 302 302 302 302 302 300 299 298
Wind_Speed
14 14 13 13 14 13 11 11 11 10 10 10 10 8 7 4 1 2 1 2 1 1 4 4 3 4 3 2 3 4 3 3 2 4 3 3 3 3 3 1 3 5 6 4 3 4 5 9 5 5 5 3 7 11
15 15 14 13 14 14 12 11 12 11 10 11 11 9 8 7 4 2 2 1 1 3 4 2 4 5 2 2 3 3 2 3 2 3 2 3 3 3 3 3 2 5 4 3 8 3 2 9 8 5 4 9 10 9
15 15 15 14 13 14 14 11 11 11 10 11 12 11 10 9 9 5 1 1 1 2 4 3 5 2 3 9 3 2 2 2 3 3 3 2 3 3 4 5 3 5 5 4 3 3 7 7 8 11 8 10 10 11
15 16 15 15 14 14 14 12 12 11 11 10 11 12 11 11 11 8 3 2 0 1 3 2 2 2 0 6 6 2 5 5 5 1 2 2 2 4 2 1 4 0 8 5 5 9 8 5 7 7 6 7 9 9
15 16 16 15 15 13 14 14 13 11 12 11 11 11 11 12 12 5 2 4 3 3 3 4 6 1 2 6 7 7 8 5 2 3 2 3 2 4 1 2 5 7 6 6 5 5 4 5 3 4 7 9 9 8
17 17 16 15 14 13 13 14 13 13 12 12 12 13 12 11 14 3 3 6 8 4 2 4 3 1 2 7 9 9 5 3 2 2 2 2 1 3 4 4 5 9 7 7 3 1 5 5 6 6 5 8 8 10
17 18 16 15 13 12 14 13 13 14 13 12 11 11 11 11 7 4 3 2 10 3 3 4 3 2 4 5 3 3 3 3 1 2 3 2 3 4 3 5 4 8 10 9 6 2 6 5 4 3 5 8 8 9
17 18 16 15 13 11 14 13 13 13 12 11 12 11 11 13 4 2 2 10 6 3 1 3 2 3 6 3 4 0 3 2 2 2 2 3 3 2 6 10 4 3 3 6 8 9 6 3 6 5 5 6 9 9
17 17 17 15 14 10 12 14 13 13 12 11 12 17 1 2 4 2 16 11 2 1 3 4 5 5 6 3 3 2 1 3 2 3 3 5 4 7 8 7 8 9 7 2 4 5 4 5 4 6 6 8 8 9
16 15 16 15 13 10 12 14 13 12 13 11 5 3 2 3 24 20 3 3 1 2 3 4 3 5 6 3 3 4 1 3 4 4 5 5 5 12 9 7 4 5 8 6 5 3 3 2 4 6 9 8 6 6
15 14 14 16 14 9 13 13 10 10 9 2 3 1 1 17 2 3 5 6 6 5 6 5 8 6 5 6 4 2 4 4 4 4 5 4 5 4 5 7 7 9 6 6 3 4 2 2 5 6 9 7 5 5
14 13 15 15 12 9 10 7 5 3 2 1 4 3 2 2 2 4 5 5 7 8 7 8 7 3 5 3 3 4 4 3 4 7 4 3 5 5 6 7 8 8 8 9 7 5 2 3 4 6 7 6 4 4
15 13 13 13 12 10 10 8 9 10 6 1 2 2 3 3 5 8 10 6 7 6 8 7 7 6 4 3 3 3 5 4 6 4 4 5 3 6 8 9 9 8 10 9 7 4 3 4 2 4 6 2 2 5
13 14 14 12 13 11 9 9 11 9 4 3 5 5 6 5 6 6 4 5 4 6 10 9 7 4 3 5 3 5 3 5 5 4 6 4 9 10 9 8 10 11 10 9 7 5 3 4 6 5 2 0 2 5
12 13 12 10 13 12 9 9 10 3 2 4 4 6 7 5 4 3 3 1 3 9 12 8 4 1 2 4 3 4 5 6 6 5 3 4 9 12 11 9 10 10 9 6 4 4 4 5 5 5 1 1 2 4
11 8 7 12 12 10 8 6 3 1 1 2 4 4 4 3 3 3 4 3 3 8 5 2 5 5 5 4 5 7 8 7 4 4 3 7 11 10 10 9 9 8 7 5 5 4 4 5 5 3 3 1 2 4
12 3 11 14 12 10 9 4 2 5 5 5 5 4 3 2 4 3 4 5 3 7 7 4 8 7 5 5 6 4 5 3 3 4 5 8 12 11 9 7 7 6 5 5 4 3 3 3 1 3 3 1 3 4
2 4 9 13 9 5 1 2 1 3 5 5 4 5 4 4 2 6 2 3 5 8 3 3 5 5 6 9 5 5 3 2 2 5 7 8 8 7 6 6 5 5 6 5 4 4 3 4 2 2 2 1 3 5
5 5 10 8 6 3 5 5 3 4 4 2 2 2 1 4 3 6 3 4 1 1 3 1 3 4 4 3 5 5 5 4 5 5 6 6 7 7 6 5 5 5 5 4 3 3 3 2 1 3 2 1 3 4
12 9 1 12 11 2 5 4 3 2 2 3 2 2 2 2 1 2 1 3 3 4 3 3 2 2 3 3 3 4 5 6 8 8 6 5 4 5 4 3 3 1 1 3 3 1 2 3 3 3 1 2 3 4
5 4 3 7 4 3 2 3 3 3 3 2 3 3 2 3 2 2 1 1 2 2 2 2 1 2 3 4 4 5 7 7 6 5 6 6 4 4 4 3 2 2 3 4 3 1 3 2 4 3 2 2 3 5
1 6 2 1 1 3 1 2 1 1 2 1 2 2 2 2 2 2 1 2 1 1 2 2 3 5 6 6 7 7 9 9 7 6 7 7 6 4 4 4 4 4 3 4 2 2 3 4 4 3 2 3 3 3
7 3 1 2 2 2 0 1 2 2 0 3 3 3 2 2 2 2 1 1 1 3 2 3 2 5 7 7 8 8 7 7 5 4 4 3 3 2 2 3 3 4 4 1 1 2 4 5 5 3 3 2 2 1
2 2 2 3 2 3 2 2 2 3 4 2 1 2 3 2 3 1 2 2 2 1 4 5 4 5 4 5 5 6 5 3 3 3 3 3 3 3 4 3 2 3 2 1 2 4 5 5 5 4 2 3 3 3
4 5 4 4 4 4 4 5 3 0 3 3 3 2 2 2 3 3 3 3 2 2 4 5 4 4 6 7 5 4 3 3 3 4 4 4 3 2 2 2 3 3 3 4 4 6 6 5 4 3 1 3 2 3
4 4 6 6 5 5 4 5 5 4 3 3 3 3 2 2 4 3 3 0 1 0 2 5 5 5 4 4 5 4 3 3 3 4 4 6 5 5 4 4 4 3 4 3 6 8 8 5 5 4 3 5 6 6
1 3 4 2 2 3 3 2 3 2 2 4 3 5 4 4 3 1 1 2 1 1 1 1 3 4 5 5 3 2 2 3 3 2 1 2 4 4 2 3 5 1 5 7 7 8 8 7 6 6 5 6 5 3
2 2 5 5 2 1 3 2 3 4 3 2 2 2 2 1 2 2 2 3 2 1 3 3 2 2 2 1 2 3 4 4 4 4 5 4 3 2 3 2 2 7 7 7 8 8 6 6 6 7 7 6 4 3
1 2 3 5 3 4 4 3 2 3 2 2 2 2 2 3 3 2 2 2 3 2 4 5 5 4 5 5 4 3 4 5 8 9 8 5 5 4 3 4 6 5 7 8 6 7 9 8 9 8 7 2 4 6
4 3 4 4 3 2 3 3 3 3 3 2 2 2 2 2 3 3 3 3 5 6 5 4 3 3 4 5 6 6 4 2 2 2 3 4 3 3 5 6 7 7 7 9 11 10 7 8 3 2 1 3 5 4
1 2 4 3 3 2 3 2 2 2 2 4 5 4 3 2 2 3 3 3 3 3 2 3 4 4 4 4 5 6 5 3 2 1 1 1 3 3 4 3 6 8 9 11 12 12 11 10 8 6 4 7 9 7
3 3 3 3 2 1 3 3 3 3 3 3 3 1 1 1 1 1 0 1 1 1 2 1 1 3 4 3 2 2 1 1 1 2 3 3 2 3 5 6 6 7 9 11 12 12 14 11 8 6 4 11 10 10
3 4 3 3 2 2 2 3 3 2 2 2 2 1 1 1 1 1 1 4 4 3 3 2 1 1 2 2 3 3 3 2 2 3 4 2 3 4 4 3 3 6 10 10 10 10 12 11 8 7 7 10 11 11
Wind_Direction
295 298 310 313 313 311 303 297 281 266 256 260 258 260 267 267 347 328 336 234 293 257 275 216 224 182 149 190 186 127 167 174 133 178 197 179 214 167 223 179 196 192 174 192 170 230 264 156 137 203 274 266 284 293
287 290 294 306 309 311 304 308 301 283 262 253 250 237 240 233 180 125 274 113 313 234 295 284 270 271 242 210 151 160 355 158 141 120 190 141 181 178 186 228 170 211 217 187 204 239 115 190 240 253 245 281 292 292
278 282 286 291 304 302 304 297 303 297 271 250 242 230 226 220 186 170 279 243 189 285 261 262 241 194 186 220 200 215 201 141 173 356 133 107 222 169 187 222 203 209 173 226 197 195 238 242 252 260 263 256 286 293
267 275 278 281 290 298 302 300 301 307 288 262 247 236 220 212 187 166 198 151 212 73 278 290 343 261 21 179 174 150 122 101 98 214 125 151 212 212 207 16 246 179 161 197 246 273 272 253 242 272 268 269 285 297
270 267 267 270 277 290 294 298 296 296 299 286 261 248 228 213 189 164 194 213 223 268 297 293 299 326 278 170 151 132 137 128 153 152 170 186 129 179 141 238 233 185 186 188 228 212 225 268 269 261 279 300 305 302
271 275 253 260 265 278 289 289 293 292 288 285 276 259 239 214 144 129 256 194 186 188 254 279 3 157 95 128 125 123 116 100 101 166 167 184 91 226 203 234 241 199 209 228 229 168 217 281 288 273 289 311 311 300
266 272 253 250 250 271 281 289 291 295 287 292 294 262 248 206 160 181 202 96 154 155 186 258 240 120 146 130 105 127 80 99 121 136 207 182 169 209 241 235 233 207 218 218 224 223 263 219 274 329 300 296 296 296
262 270 250 247 243 254 273 282 286 292 295 287 294 289 250 203 97 223 118 129 125 115 169 254 227 200 188 154 141 237 128 143 134 134 163 196 143 226 250 234 221 233 211 234 233 215 261 300 282 302 304 301 304 313
267 257 241 237 237 238 268 271 281 283 290 279 286 279 131 155 191 124 123 108 15 245 196 206 203 194 163 111 111 131 191 166 97 218 207 183 163 222 230 224 209 204 200 180 158 179 200 244 297 307 308 310 304 322
265 255 240 234 233 238 267 266 268 277 283 281 262 198 195 199 124 123 100 100 86 265 237 241 183 178 182 162 131 134 219 172 191 193 138 217 246 253 245 223 223 172 202 189 182 178 183 245 307 323 306 308 304 302
257 254 236 228 225 244 251 253 249 285 276 202 212 174 344 154 157 176 132 153 174 203 205 213 191 149 193 175 141 228 159 164 212 155 204 207 258 224 181 191 214 204 185 183 146 126 136 260 290 291 301 322 311 309
248 256 232 223 224 219 233 253 273 275 257 211 118 94 102 226 210 144 169 179 193 209 177 175 171 147 151 173 139 181 173 179 222 141 205 234 236 173 160 145 137 151 146 141 153 146 166 244 262 285 301 312 323 332
241 251 219 215 215 207 221 231 254 265 248 181 121 164 178 183 206 192 186 186 187 173 166 166 153 139 136 197 100 159 174 179 127 190 225 235 130 164 156 134 127 135 141 143 151 163 220 273 335 331 319 303 319 338
239 235 212 218 215 209 222 241 252 270 226 163 151 207 214 188 228 203 211 149 172 151 147 157 135 151 138 163 146 163 109 148 188 224 222 204 180 167 155 148 145 157 161 162 176 200 251 323 339 340 318 215 330 342
235 216 204 224 215 211 222 245 256 254 180 176 170 204 221 233 256 257 274 243 147 149 145 138 85 141 140 130 185 117 166 205 216 216 206 175 164 156 160 163 164 168 173 175 184 233 284 321 333 335 203 171 308 323
199 190 210 198 212 209 215 243 235 56 31 143 225 195 211 269 239 207 224 222 154 161 107 83 141 155 191 170 169 196 179 211 204 199 166 145 153 162 160 166 176 176 173 178 204 237 288 314 341 352 159 223 298 327
179 188 195 194 198 193 200 201 137 197 196 196 222 211 175 186 271 258 199 188 161 163 199 157 164 178 125 177 189 187 202 190 168 155 155 156 159 165 161 171 177 175 189 212 230 257 297 0 87 181 229 231 298 318
138 186 194 201 162 146 95 193 291 243 220 218 212 202 165 131 293 273 216 168 157 194 169 199 131 175 174 174 178 175 172 103 95 143 143 143 139 143 157 163 164 193 215 238 253 301 318 319 273 198 186 249 309 331
164 173 182 166 159 148 177 171 167 256 231 223 232 271 187 117 231 264 239 183 151 87 110 254 162 181 180 174 141 146 152 155 145 130 119 125 137 147 148 152 168 207 240 275 279 284 301 276 168 147 140 315 345 339
159 135 90 189 173 149 191 191 186 256 206 188 194 184 220 132 72 306 189 154 123 139 190 218 218 182 147 148 150 137 133 134 133 129 130 138 142 141 143 154 192 165 271 265 249 204 187 158 135 130 105 4 332 329
100 163 204 152 178 258 231 174 191 230 263 225 156 193 116 117 134 269 313 99 83 106 173 225 134 102 82 99 115 121 127 142 140 142 144 148 152 151 146 161 177 220 249 263 281 181 215 199 143 154 141 21 317 295
139 130 111 171 204 233 284 244 277 186 249 293 162 101 126 109 155 196 177 80 108 310 232 118 161 143 123 126 130 123 120 106 97 95 94 121 156 175 190 198 204 235 249 275 275 256 168 153 156 151 102 40 339 335
136 152 132 170 138 203 185 238 227 223 223 166 155 125 118 180 161 175 121 60 72 202 205 234 189 149 128 119 121 116 123 126 130 147 161 167 143 159 197 210 217 253 276 282 233 159 155 139 157 150 121 184 261 279
155 144 131 162 204 174 224 187 253 214 184 195 117 83 95 103 145 225 120 168 221 202 200 193 165 134 128 151 172 169 143 136 123 123 153 179 198 205 224 248 231 238 236 149 155 148 148 154 146 174 192 265 286 293
140 178 184 176 205 187 202 148 175 208 145 141 149 112 155 163 170 187 191 201 183 192 199 185 187 176 176 169 171 171 157 175 195 220 190 208 218 176 198 245 239 233 174 177 157 155 150 153 158 162 187 309 42 67
229 162 189 175 159 202 173 139 164 163 163 158 165 98 121 160 195 209 202 98 80 153 159 172 173 163 181 187 175 168 183 196 195 225 214 202 203 206 214 221 226 203 184 180 159 159 150 151 165 154 184 114 97 105
178 167 178 225 190 169 173 107 120 128 206 181 172 174 160 177 202 139 77 45 345 17 302 253 197 197 194 180 186 172 127 152 204 277 2 169 190 189 199 225 244 191 148 151 151 148 155 159 168 164 138 132 155 176
257 214 157 160 144 34 112 108 126 177 168 119 121 132 179 145 101 62 25 22 354 40 81 78 75 152 160 175 157 147 134 136 115 114 106 98 117 149 181 187 101 129 127 138 139 137 134 149 136 131 132 138 170 242
33 13 135 95 100 65 39 14 46 64 3 120 123 114 107 46 23 37 42 23 16 63 72 79 65 87 90 86 85 71 114 146 155 163 173 166 172 165 153 121 131 124 124 127 108 120 127 118 129 161 162 169 127 163
40 346 88 50 56 59 38 359 45 29 40 36 14 96 75 67 32 351 354 20 43 49 43 41 39 78 102 109 102 82 63 47 343 268 229 208 194 143 170 163 153 144 140 142 133 126 119 146 144 167 178 110 129 105
345 67 79 47 71 38 19 53 72 68 49 38 15 57 58 41 23 19 18 37 52 44 54 60 64 46 72 89 111 118 107 62 21 58 168 149 150 168 172 169 158 148 159 157 153 161 161 162 164 172 198 148 154 142
41 43 106 93 97 95 41 54 49 48 36 47 60 54 71 31 86 35 50 291 344 2 68 52 43 71 63 55 54 68 247 291 328 35 75 103 119 135 115 110 126 149 156 162 168 175 180 179 176 186 149 139 140 132
96 84 96 107 98 35 55 73 52 77 53 61 74 52 64 76 239 17 186 230 260 276 266 249 232 203 203 251 268 281 264 271 314 315 258 84 70 98 108 115 146 165 163 161 168 177 181 185 182 182 159 147 139 137